GFSMA_sfc_thetae_000.txt.gz
Theta_e
329 330 331 330 330 330 330 330 332 331 328 329 334 335 335 333 343 343 344 347 345 346 347 347 345 343 345 344 348 350 349 348 347 346 343 342 340 337 336 334 333 332 332
329 330 330 330 330 330 331 331 331 331 331 333 334 337 337 338 341 343 344 344 345 344 345 345 342 344 344 345 350 348 348 347 346 343 341 340 338 335 334 333 332 332 331
330 331 330 330 329 330 329 331 331 332 332 335 336 336 336 337 340 343 342 341 341 343 343 342 345 345 345 345 348 348 347 346 344 342 340 339 337 335 333 333 332 331 330
332 331 330 330 330 330 329 329 330 331 330 331 333 333 333 338 340 342 340 339 338 339 342 343 344 345 346 346 347 348 347 344 343 341 339 337 334 333 333 332 331 331 330
333 333 330 331 331 329 329 330 328 329 330 330 332 332 334 336 341 340 338 338 338 338 338 341 342 342 343 346 348 348 345 343 342 340 338 335 334 332 332 331 331 330 329
332 333 330 330 332 329 328 329 329 330 330 331 333 332 334 337 339 337 337 338 337 336 337 334 338 339 341 345 346 346 345 342 340 338 337 336 334 332 331 331 330 329 328
331 333 331 330 332 329 328 328 330 328 328 330 328 328 332 337 336 336 337 336 334 334 334 336 336 335 337 340 341 345 343 341 339 337 336 335 333 331 330 329 328 327 327
333 333 331 330 330 329 330 328 331 327 327 329 327 327 321 326 331 333 334 332 333 334 333 334 335 336 336 335 338 343 341 340 339 336 335 334 333 330 329 328 327 327 326
333 333 332 331 330 332 329 328 329 327 327 329 331 327 320 318 325 330 331 331 332 332 332 333 333 334 334 335 338 340 340 339 338 335 333 333 331 330 328 327 327 326 326
332 332 332 331 332 332 329 329 330 328 327 325 329 332 332 327 320 320 328 330 331 330 331 331 331 333 334 335 338 339 337 337 336 333 331 331 330 329 328 327 327 328 325
333 332 332 333 331 330 331 330 330 329 331 329 329 329 329 328 327 323 319 324 329 330 331 331 332 332 334 335 336 335 334 333 333 333 332 331 329 328 328 327 327 326 324
330 332 332 333 332 331 333 333 332 330 332 332 332 329 328 325 323 322 321 322 323 327 330 331 330 330 331 333 337 333 330 329 328 329 329 331 332 331 329 327 326 324 324
329 330 332 333 334 333 335 335 334 332 333 332 330 330 330 329 327 326 323 321 320 320 326 330 330 331 332 332 332 331 331 327 326 325 326 328 329 330 330 330 327 326 324
330 331 332 334 334 333 333 334 332 333 332 331 330 330 330 329 329 327 324 320 317 318 321 324 329 331 332 333 329 330 327 325 324 323 323 325 326 327 327 327 327 326 326
332 332 333 333 334 333 332 332 332 332 333 331 331 330 329 330 329 328 326 325 320 315 316 322 324 330 332 333 330 329 326 325 324 321 321 321 321 322 323 323 322 322 321
333 331 332 332 332 333 333 334 333 333 331 329 329 329 328 329 328 329 328 327 325 321 316 323 324 329 332 333 331 329 328 324 322 320 320 319 318 319 319 319 319 319 318
331 331 330 332 332 332 331 334 332 331 330 329 328 326 326 328 328 327 328 326 325 324 320 324 328 330 330 331 327 330 327 320 318 318 319 317 316 316 316 316 316 316 315
332 332 333 332 332 333 334 332 330 330 328 327 327 325 324 327 326 326 327 325 325 326 323 320 324 327 326 328 325 326 325 322 317 317 316 315 314 313 313 313 313 312 312
331 332 332 332 331 332 331 331 332 331 329 328 327 325 324 325 324 325 325 325 326 329 324 322 322 323 323 323 320 324 326 326 322 320 315 314 313 312 311 310 311 310 309
329 329 332 332 331 331 332 333 332 331 330 329 328 327 326 326 325 326 326 325 326 326 323 322 322 321 321 324 322 321 319 322 319 316 315 312 312 312 311 310 311 312 308
332 331 332 332 331 332 332 332 332 331 330 329 329 330 328 326 324 326 327 324 326 325 324 320 318 319 319 320 319 321 319 319 320 320 311 308 306 305 306 309 310 313 309
332 330 325 326 325 318 306 316 328 331 329 328 328 325 321 317 314 313 316 316 322 322 320 320 319 317 317 321 321 320 320 317 315 322 316 313 307 307 307 307 307 305 305
334 328 327 326 323 316 305 307 317 329 328 328 326 323 322 322 322 319 309 310 310 310 317 329 322 323 324 324 323 322 320 320 319 321 316 313 318 315 315 313 307 304 303
333 331 327 326 321 310 305 306 318 332 331 329 328 326 321 326 322 324 324 323 323 323 324 326 326 327 324 322 328 327 326 325 325 324 323 316 319 317 318 318 309 305 302
333 332 329 327 320 316 303 303 319 329 329 327 327 326 329 322 305 306 323 321 321 316 304 302 300 299 297 298 303 319 319 318 315 317 320 319 318 317 317 315 314 305 302
334 330 329 330 319 319 299 299 307 326 326 324 323 314 305 317 300 302 323 322 320 320 313 308 311 305 300 306 300 311 312 308 307 306 310 306 305 303 301 307 305 303 301

GFSMA_sfc_thetae_003.txt.gz
Theta_e
325 324 324 324 323 325 325 324 325 327 326 325 324 330 331 330 336 337 338 348 347 348 347 348 347 346 343 344 342 343 346 348 348 346 345 343 341 338 337 335 333 333 332
325 322 323 322 322 322 324 324 325 325 325 323 323 330 330 332 334 336 339 344 346 345 346 347 346 344 346 344 343 345 347 347 346 344 342 341 339 336 335 334 333 332 332
326 322 322 321 321 322 322 324 324 324 324 326 326 330 331 332 335 336 339 340 342 344 346 346 346 346 345 344 345 348 347 346 345 343 341 339 337 336 333 334 333 332 330
324 323 322 321 321 321 321 322 322 322 323 324 325 327 328 330 334 337 340 339 340 340 344 344 344 344 345 345 347 348 347 345 343 341 340 337 335 335 333 333 332 331 330
326 323 322 322 322 321 320 321 321 322 321 323 326 326 328 326 332 337 336 337 338 339 339 342 343 344 344 345 348 347 346 344 342 340 339 336 334 333 333 332 331 330 329
326 325 323 322 322 320 319 320 320 322 323 323 328 329 329 327 330 334 334 337 337 337 337 339 339 339 342 345 345 348 346 343 340 339 338 336 334 332 332 331 330 330 329
325 324 322 322 321 320 319 320 321 321 321 322 320 323 324 329 326 333 335 334 334 335 335 336 335 335 336 340 342 347 345 342 340 338 337 335 334 332 331 331 330 329 328
327 325 323 322 322 320 320 320 320 319 319 323 319 319 318 323 325 331 333 331 331 332 334 335 334 335 335 335 337 342 343 341 339 337 335 334 333 331 330 329 328 328 327
327 326 324 322 322 321 320 320 320 320 318 321 324 319 315 314 324 329 330 330 332 332 333 333 334 335 335 335 337 340 341 340 339 336 333 333 332 331 329 328 328 327 327
325 326 325 324 322 321 321 322 324 322 324 320 322 326 324 324 320 319 328 329 330 330 330 331 332 333 334 334 337 338 337 338 337 335 333 332 331 330 329 328 328 327 327
325 327 325 324 321 321 321 325 321 322 324 322 321 322 322 323 325 321 319 322 327 329 329 329 331 332 333 334 333 334 334 334 334 333 333 332 331 330 329 328 328 327 325
323 325 326 323 321 321 322 323 323 323 322 323 323 322 322 321 322 323 321 321 321 325 327 329 329 331 333 333 335 333 330 329 328 328 330 331 332 332 330 328 327 327 325
320 321 323 323 323 322 324 325 325 326 326 324 324 324 327 326 327 325 324 320 320 324 325 328 328 330 332 332 333 332 331 327 325 325 326 327 329 331 331 330 329 327 326
320 322 323 323 325 325 326 325 324 327 326 325 324 325 327 327 327 327 324 322 318 318 321 323 328 329 330 330 331 331 327 325 324 322 322 324 326 326 327 328 328 327 327
324 324 324 324 325 326 325 324 327 327 327 326 324 326 327 327 327 326 326 324 320 315 316 321 323 328 330 328 329 326 324 325 325 321 321 321 322 323 323 323 323 323 323
322 323 324 324 326 325 325 326 327 326 324 325 327 328 328 327 326 327 327 325 323 319 315 322 323 327 331 329 330 325 325 324 322 320 320 319 318 319 319 319 319 320 321
324 324 325 325 326 325 325 325 324 326 324 325 327 327 327 328 328 327 326 326 324 323 319 323 326 328 327 327 327 327 326 322 321 319 320 318 316 315 316 316 316 317 318
324 325 326 326 328 326 325 326 326 326 324 323 324 326 327 328 327 326 326 324 325 324 323 320 323 325 325 327 325 325 324 324 319 319 318 316 314 313 313 312 312 313 313
324 325 327 327 328 328 327 327 326 325 323 323 324 326 325 326 326 326 326 325 324 327 323 322 321 323 320 322 320 321 320 317 318 319 315 315 313 312 312 311 310 310 310
324 324 327 328 329 329 327 329 329 327 325 325 324 324 325 326 325 326 326 325 325 323 322 322 320 318 317 317 314 313 315 317 315 316 315 312 312 313 312 311 311 311 309
324 325 325 328 329 328 330 328 327 327 326 326 326 327 327 326 324 325 326 324 323 323 321 319 316 315 314 315 312 315 315 314 314 310 307 307 307 307 309 311 312 313 309
324 321 319 320 318 319 310 316 324 327 327 327 325 325 325 322 320 317 318 318 321 322 318 316 314 314 314 315 315 316 315 312 310 316 309 308 306 304 307 305 307 306 306
319 319 319 316 311 311 308 310 316 328 328 325 321 320 322 323 319 320 308 309 311 312 317 318 314 314 313 317 316 313 313 313 313 315 313 309 309 307 308 310 306 304 303
318 317 316 315 310 306 303 308 313 325 324 322 320 318 316 317 316 314 316 317 317 318 316 323 320 319 319 319 319 319 317 316 317 319 316 312 314 313 316 313 305 304 302
320 317 315 313 310 306 305 309 320 322 321 320 319 316 318 315 306 308 317 315 314 310 302 301 300 298 297 302 311 317 314 312 308 309 309 311 304 303 306 302 303 303 302
321 321 317 312 310 308 300 303 316 321 316 313 310 314 309 309 301 307 314 313 312 310 307 304 305 301 296 300 301 307 310 304 303 301 308 305 302 302 302 306 305 304 303

GFSMA_sfc_thetae_006.txt.gz
Theta_e
320 325 325 324 321 322 323 322 324 324 324 325 324 323 327 329 329 331 335 347 347 347 348 348 346 345 346 344 343 341 340 342 345 347 345 344 342 339 337 335 334 334 333
323 324 319 320 319 320 322 322 322 322 323 324 323 324 327 329 330 332 334 338 345 345 346 347 347 346 346 344 341 340 339 343 344 345 343 342 340 337 335 334 333 333 332
322 321 319 319 320 320 320 321 321 322 322 323 323 323 328 329 330 332 335 336 339 345 344 346 347 346 345 344 341 339 341 343 345 343 341 339 338 336 334 334 333 332 331
323 320 319 320 320 319 319 319 319 319 320 320 321 322 326 328 330 332 334 335 334 338 344 344 345 344 345 341 341 342 343 345 343 341 340 338 335 336 334 333 332 331 330
322 320 320 320 320 318 317 318 317 319 318 319 321 322 324 325 330 333 334 333 336 336 339 344 343 343 341 340 342 343 345 344 342 340 339 337 335 334 333 332 331 330 330
323 321 320 320 320 317 316 317 316 319 319 319 324 323 323 323 329 330 333 335 337 335 337 338 339 338 338 340 342 344 345 343 340 338 337 336 336 334 333 332 331 330 329
323 321 320 320 319 317 316 317 317 318 317 319 317 318 319 323 326 331 333 334 334 335 336 336 336 335 337 340 341 343 344 342 339 337 336 335 335 333 332 332 331 330 329
326 323 321 320 319 317 317 318 318 316 317 319 316 318 314 319 326 330 332 332 332 334 333 333 333 333 333 335 337 340 342 341 340 336 335 334 335 333 332 331 330 329 328
327 324 322 320 319 318 317 317 318 317 316 318 319 320 314 312 319 328 328 330 331 332 332 331 332 332 333 333 335 338 341 340 338 336 334 334 333 332 331 329 329 328 328
324 324 322 321 320 318 317 318 320 319 319 317 320 324 323 322 317 318 327 328 330 330 330 331 331 332 332 333 336 337 337 338 338 335 333 333 332 331 330 329 328 328 328
325 324 323 321 319 318 318 321 319 319 319 319 320 321 321 320 322 322 318 323 327 329 330 330 330 331 333 333 333 333 334 334 334 333 334 333 332 331 330 329 329 328 327
323 322 323 320 318 318 319 319 319 320 319 321 323 324 322 319 320 322 321 321 321 325 328 329 330 331 331 332 335 333 331 329 328 329 331 332 333 331 330 329 328 327 327
317 318 320 321 319 319 321 321 320 323 320 321 321 321 321 324 325 325 323 320 320 323 324 327 329 330 332 332 333 333 331 326 325 324 326 328 330 330 331 331 329 328 326
317 319 321 321 322 322 323 321 323 323 322 321 322 322 324 326 327 326 323 320 317 319 321 323 328 330 331 330 331 331 328 324 323 322 322 323 325 327 328 328 329 328 328
320 321 321 321 322 323 322 323 324 323 324 325 326 325 325 327 327 325 325 323 319 315 316 322 323 328 330 329 330 327 326 325 324 321 320 320 321 322 323 324 324 324 324
320 321 321 321 322 322 322 324 323 322 326 327 327 326 326 324 325 325 324 324 323 320 316 322 324 327 328 328 330 325 324 325 324 320 320 320 318 319 320 320 320 321 321
320 322 322 323 322 322 323 323 321 323 325 326 327 326 324 325 324 324 324 324 323 322 319 323 326 328 326 325 326 325 326 324 321 319 320 318 316 316 316 316 317 318 318
321 322 324 324 324 322 323 324 323 324 324 324 325 326 325 326 324 325 324 324 323 324 322 319 323 325 325 326 325 325 326 324 320 320 318 317 315 314 313 313 312 313 313
322 324 325 324 325 324 323 323 323 322 323 324 325 326 326 326 324 324 324 323 325 325 324 322 321 323 322 325 322 321 319 317 319 321 316 315 314 314 313 311 310 310 309
323 324 325 326 326 325 325 324 323 321 320 323 326 326 326 326 325 324 324 324 324 323 323 322 321 319 318 317 318 317 315 316 315 315 315 313 313 313 312 311 311 312 309
323 324 325 326 326 326 327 326 325 325 324 322 322 325 325 325 322 323 325 324 324 321 322 318 316 315 314 312 310 311 311 311 313 314 309 309 308 308 309 310 313 314 310
320 322 323 324 324 327 309 313 322 325 325 324 323 325 324 321 319 316 318 318 320 320 317 316 314 313 312 313 313 311 311 310 310 312 309 310 308 307 307 306 307 305 305
316 317 318 318 317 319 306 309 315 326 325 324 324 324 326 327 322 325 313 313 312 312 315 317 314 313 313 314 314 311 311 311 310 313 312 310 310 309 310 310 306 304 302
315 313 313 313 314 316 305 307 311 327 325 324 323 323 324 324 324 319 317 314 315 317 317 320 316 315 315 316 316 315 313 312 314 313 313 311 308 309 311 302 304 305 304
313 312 312 311 311 310 303 305 317 323 322 320 319 318 319 318 306 304 315 313 308 305 302 303 308 306 304 305 311 318 314 312 307 307 306 309 304 303 302 303 303 303 301
314 313 311 311 307 306 302 306 315 320 317 314 313 315 307 311 300 301 313 312 308 307 303 302 299 297 297 299 302 307 310 303 300 300 306 303 302 301 300 302 301 301 301

GFSMA_sfc_thetae_009.txt.gz
Theta_e
319 319 321 323 323 322 321 320 322 323 324 325 324 324 323 325 328 328 328 338 345 347 348 349 349 347 347 346 345 343 341 340 341 342 343 345 344 341 339 337 336 334 333
319 320 321 321 318 318 319 320 321 321 321 322 323 323 322 325 327 328 329 332 343 346 347 347 347 348 348 346 344 341 340 340 340 341 344 343 341 338 336 335 334 333 333
320 320 318 317 318 318 318 319 319 320 320 321 321 322 322 324 326 328 330 332 335 344 345 347 348 347 347 345 343 342 340 338 340 342 342 341 339 337 334 334 334 333 332
321 319 317 317 319 318 317 317 317 317 317 318 318 319 322 323 326 328 330 332 332 336 344 346 346 346 345 345 344 340 337 338 340 341 341 339 338 337 335 334 333 332 331
323 319 317 318 319 317 316 316 315 317 316 317 318 319 321 321 325 330 330 331 332 334 336 342 343 344 345 344 341 338 339 339 341 341 340 338 336 335 334 332 332 331 330
323 318 317 318 319 316 315 314 314 316 316 316 321 320 319 321 324 326 329 333 334 335 335 337 339 340 343 340 339 339 341 341 340 339 338 337 337 335 333 332 331 330 329
322 320 318 319 318 316 315 315 315 315 315 317 315 315 320 324 326 328 331 331 333 334 335 336 337 336 335 337 338 340 342 343 340 338 337 336 336 334 333 332 331 330 329
323 323 320 319 317 315 314 315 315 314 315 316 313 313 310 315 324 327 330 330 332 334 334 334 331 332 333 335 336 339 340 341 340 337 336 335 335 334 333 332 331 330 330
324 324 322 319 317 316 314 314 315 316 314 317 317 315 312 308 319 326 328 330 331 330 332 332 331 332 333 334 335 336 338 339 337 336 335 335 335 333 332 331 330 330 329
323 323 321 319 317 316 314 315 317 316 316 315 317 321 318 318 315 316 325 327 330 328 329 330 330 331 332 333 336 336 336 337 335 335 334 334 334 333 332 330 330 329 328
322 322 320 319 317 316 315 317 317 317 317 316 318 320 321 319 321 321 317 321 326 328 329 329 330 331 332 333 333 334 334 334 334 334 334 334 333 332 331 330 329 328 328
320 320 321 318 317 316 318 317 317 318 318 318 321 322 321 319 319 320 320 320 321 324 328 329 329 330 331 332 334 333 330 330 328 329 331 332 333 332 330 330 329 328 327
315 316 318 317 317 318 318 318 318 318 317 319 321 321 322 321 324 323 323 320 319 323 324 328 329 330 331 331 333 333 331 327 325 325 326 328 330 331 331 330 330 328 327
315 316 319 319 320 321 320 319 319 319 319 319 321 321 323 324 325 326 322 321 317 319 322 323 328 329 330 331 332 332 328 325 324 322 322 323 326 327 328 328 328 328 328
318 318 319 319 321 320 320 320 320 323 324 323 322 325 326 325 325 326 325 324 319 315 316 322 323 328 329 330 331 328 326 325 325 321 320 320 322 323 324 324 324 324 324
318 318 319 319 320 320 321 321 322 325 326 326 323 325 325 324 324 325 324 324 322 320 316 322 324 327 329 329 331 327 325 324 322 321 321 319 319 319 320 320 320 321 322
319 319 319 320 319 320 320 320 323 325 326 325 326 324 324 324 323 324 324 324 322 322 318 322 326 326 326 327 326 324 325 324 323 320 320 319 317 316 317 317 317 317 318
319 321 321 321 321 320 320 322 323 324 325 324 325 325 324 324 323 324 324 322 322 323 322 320 324 325 324 324 323 322 326 327 323 322 318 317 315 314 313 312 312 313 313
320 321 322 321 321 321 321 320 322 323 324 325 325 325 324 324 323 324 323 323 324 324 324 322 322 323 324 324 323 323 322 321 320 322 317 316 315 314 313 312 311 310 309
321 321 321 323 322 322 322 321 321 322 323 324 325 326 325 324 324 323 323 323 324 323 323 322 322 318 319 320 321 318 316 314 314 316 316 314 314 314 312 311 312 313 309
321 322 323 324 323 323 323 320 320 320 322 323 325 326 325 323 322 322 324 323 323 322 322 319 317 316 315 314 315 313 313 311 312 313 311 310 309 309 308 309 312 312 308
321 322 322 322 321 324 305 312 321 324 324 323 324 324 323 320 318 314 316 316 321 322 319 317 314 314 313 313 310 309 310 309 308 311 310 310 308 309 308 307 307 305 303
316 318 319 319 320 317 304 306 313 325 324 323 324 324 325 324 322 323 313 313 314 311 314 317 314 313 312 313 311 309 309 309 310 312 311 310 310 308 309 306 303 303 302
314 314 315 316 319 318 304 305 311 325 323 323 324 325 324 323 323 322 321 320 318 318 315 318 316 315 314 315 314 314 313 311 312 308 310 309 303 304 303 302 303 302 301
311 312 313 315 317 316 302 302 316 323 322 321 323 323 325 323 307 307 318 314 309 308 302 302 304 298 300 306 311 317 313 312 306 304 304 305 301 301 301 302 303 302 301
311 313 312 313 310 314 300 302 315 320 317 317 318 317 309 317 300 300 314 309 306 304 303 302 300 299 300 301 304 311 312 304 299 301 305 302 301 300 298 300 299 299 299

GFSMA_sfc_thetae_015.txt.gz
Theta_e
333 333 332 332 332 332 333 332 333 333 334 336 336 336 335 336 337 336 334 337 338 339 341 343 347 348 349 349 349 346 345 342 341 340 344 343 343 346 344 342 340 339 338
333 332 332 332 332 333 331 332 331 331 331 334 334 335 335 336 336 335 331 334 336 338 339 343 346 347 348 348 348 346 343 340 339 341 343 344 343 344 342 340 338 336 335
334 334 333 332 332 333 332 332 331 332 331 333 333 334 334 335 334 334 332 335 336 337 339 341 345 346 347 348 347 344 342 341 341 342 342 342 341 342 341 337 336 335 334
336 335 332 332 333 331 330 330 329 328 329 330 332 333 333 334 334 334 333 334 338 339 340 341 345 345 347 348 348 344 343 343 341 341 340 340 340 339 338 335 335 334 333
335 334 333 332 333 330 329 329 329 328 327 329 330 331 331 331 333 333 334 339 341 343 342 343 345 345 346 346 345 344 343 340 340 340 338 339 338 339 337 336 334 333 332
335 334 332 331 331 328 328 329 329 328 328 330 328 330 331 332 333 335 337 338 340 342 344 345 345 345 341 338 344 345 343 340 339 339 338 337 338 338 337 334 333 332 331
335 335 330 329 327 326 329 330 328 327 326 330 328 328 328 333 335 337 340 341 339 340 343 343 345 347 345 342 344 343 342 340 339 339 337 335 337 337 334 333 332 331 330
336 334 332 329 329 328 329 328 327 324 327 329 326 326 320 325 331 334 336 336 337 338 339 341 345 346 344 341 341 341 340 339 339 339 335 336 336 334 334 333 332 331 330
333 333 332 332 332 330 329 328 327 326 322 326 330 327 319 316 324 333 332 332 334 335 336 339 340 338 337 337 338 339 337 338 341 337 336 336 331 334 334 332 331 330 330
332 333 333 333 332 330 329 327 328 327 327 323 327 330 333 330 321 320 332 331 333 332 332 332 333 334 337 335 337 337 334 337 335 335 334 333 333 334 333 332 331 331 330
332 331 332 332 332 330 330 329 328 328 328 328 329 328 331 332 332 325 318 323 327 330 330 332 332 332 332 333 333 333 332 331 333 332 333 336 335 334 333 332 331 330 329
332 332 330 332 331 331 331 329 330 330 330 332 333 333 331 328 328 328 322 323 322 325 329 332 332 332 332 331 333 330 329 329 328 329 332 333 335 335 333 332 331 330 329
330 331 331 331 332 332 332 332 331 330 331 330 332 332 334 334 336 332 325 323 323 325 326 330 330 331 331 331 330 330 330 327 325 325 325 327 331 332 332 332 331 330 329
330 332 331 332 333 332 332 332 331 331 331 331 330 332 332 332 334 335 328 325 319 322 325 324 328 329 331 330 330 329 329 325 323 322 322 324 326 327 329 330 330 330 329
330 331 331 333 333 333 332 333 331 331 330 332 330 327 327 332 335 332 329 329 326 317 318 323 323 329 329 330 331 330 330 324 324 321 321 322 322 324 324 325 325 326 326
331 331 330 332 332 333 331 330 328 330 331 332 329 329 328 331 332 333 330 329 329 325 319 324 324 328 329 330 330 330 328 326 323 321 321 320 320 321 321 322 322 323 324
331 330 330 330 331 331 328 330 328 329 329 330 331 328 327 327 325 328 329 329 328 327 320 322 325 328 327 327 327 328 329 327 325 320 321 319 318 318 318 318 318 319 320
331 330 330 330 330 330 328 327 327 328 328 327 326 326 325 326 325 327 331 326 326 326 323 319 323 324 324 326 325 326 326 328 328 321 319 317 316 316 315 314 313 313 312
331 331 331 330 330 326 326 327 327 328 328 328 328 326 326 327 325 326 325 326 326 327 325 323 321 325 324 324 323 325 326 327 328 322 317 316 316 316 314 313 312 311 308
331 332 331 331 331 329 325 325 327 328 328 328 330 330 329 327 326 327 330 327 325 326 325 323 322 322 322 323 324 321 321 327 323 324 317 316 315 312 311 311 311 308 305
332 332 331 331 331 330 326 326 327 328 329 328 328 329 332 327 322 324 328 328 326 325 323 322 320 320 320 320 320 322 323 321 325 326 322 323 320 316 314 310 309 307 304
332 332 331 330 330 328 306 313 323 328 329 329 328 327 326 322 317 313 314 317 323 324 322 321 320 319 321 321 320 321 321 320 318 325 318 315 316 314 312 310 303 302 301
332 332 331 331 330 328 302 306 313 329 330 328 330 327 326 324 326 329 311 312 312 310 316 324 321 321 320 323 324 323 324 324 323 321 318 312 315 311 310 307 301 300 299
332 332 332 332 327 325 301 303 311 328 328 327 329 328 328 330 328 329 325 327 326 326 328 329 330 329 331 330 329 327 326 324 325 323 321 311 314 310 308 307 301 299 297
330 330 328 330 328 324 300 303 317 326 326 328 328 328 328 324 304 309 325 326 327 324 307 303 304 304 305 307 317 325 322 321 319 319 322 316 314 310 310 306 304 298 297
329 328 330 331 317 324 299 302 319 326 324 323 325 323 311 319 300 307 331 329 326 325 325 325 325 317 316 312 309 332 328 324 318 315 318 314 313 312 308 309 306 306 304

GFSMA_sfc_thetae_021.txt.gz
Theta_e
342 339 340 338 338 336 335 339 337 335 338 336 335 334 334 337 337 338 339 342 340 339 338 340 342 343 346 347 349 349 349 347 347 345 344 344 343 343 343 344 344 343 342
343 339 341 337 338 337 336 335 335 336 336 334 335 335 337 337 336 339 337 341 340 338 338 340 341 342 345 347 349 347 348 347 345 345 344 343 343 344 342 343 342 340 339
343 342 338 339 343 347 340 339 337 337 332 333 335 335 334 336 335 337 338 336 336 340 339 340 341 341 344 347 349 348 347 346 345 344 343 343 342 342 342 342 341 339 336
343 342 339 339 345 342 342 339 334 332 331 330 333 332 333 335 336 337 337 337 334 335 339 342 341 341 345 346 349 348 348 346 344 343 342 342 341 342 342 341 339 336 334
341 342 339 341 343 340 337 336 335 333 331 330 332 335 335 335 335 334 334 335 335 335 338 342 343 343 346 347 349 349 347 345 343 343 342 341 341 341 340 339 336 334 334
339 343 339 342 343 337 336 334 335 331 330 335 329 331 334 333 333 334 335 332 334 336 337 339 340 340 345 347 348 349 348 345 343 343 341 340 340 340 339 337 335 334 333
342 342 341 340 340 336 334 335 332 332 332 335 331 330 332 335 335 332 333 332 333 335 341 338 340 340 342 345 347 348 347 345 344 342 340 338 339 338 338 336 335 332 332
341 339 339 340 339 338 336 332 335 332 334 336 327 328 322 327 333 332 333 333 335 334 338 339 339 345 346 345 345 346 347 346 342 341 339 337 337 338 337 336 333 332 331
340 340 338 338 338 339 336 336 334 331 329 333 332 329 322 320 325 333 333 332 339 341 340 343 343 343 348 348 346 343 342 342 342 340 337 336 336 335 333 334 332 331 330
337 337 337 336 336 339 335 334 336 332 333 329 333 331 333 331 322 321 334 337 341 340 342 342 346 346 347 343 344 343 338 339 340 337 335 334 332 331 331 331 332 332 331
337 336 336 336 337 338 337 335 333 333 335 333 332 335 331 332 331 320 320 329 334 337 339 340 344 345 345 343 342 341 336 336 334 334 332 332 332 331 329 333 332 332 331
338 337 334 336 337 338 335 333 335 334 334 336 337 333 335 329 325 327 328 327 326 328 332 333 338 341 338 340 342 335 332 331 329 329 330 331 333 331 334 333 332 331 330
337 337 335 337 337 337 337 337 336 335 336 335 335 335 338 338 334 336 328 324 324 326 330 334 332 335 337 335 336 334 330 326 324 325 327 328 331 333 333 333 332 331 330
337 336 336 337 336 336 336 337 342 339 337 338 335 336 339 338 340 340 337 326 320 323 327 324 329 329 337 333 331 330 326 323 324 323 324 325 327 329 330 330 331 330 331
333 335 336 336 335 335 336 336 337 335 335 336 336 337 337 337 335 340 341 334 331 319 319 320 321 326 330 329 327 325 326 326 325 322 321 322 323 325 325 326 327 328 329
333 334 335 336 335 335 336 337 336 335 334 335 334 331 333 336 330 336 334 334 335 326 318 322 321 324 326 326 328 327 326 325 322 321 321 321 321 322 322 323 325 326 326
333 332 332 334 334 334 335 334 334 333 331 330 329 327 331 333 335 332 330 331 329 327 318 320 322 324 322 323 325 327 327 326 323 320 320 320 319 319 322 323 323 322 320
332 331 330 330 332 332 333 332 330 331 330 328 326 328 328 330 333 333 332 328 325 325 320 316 320 322 322 325 325 324 325 326 323 321 319 318 317 318 318 314 313 313 312
331 332 331 330 331 331 330 331 331 330 331 331 327 325 325 327 328 327 326 325 324 324 322 319 320 322 322 322 322 323 323 325 325 320 316 315 314 313 312 310 308 307 306
331 331 331 332 333 332 331 330 331 330 331 332 332 329 326 329 327 327 326 326 325 322 322 321 320 320 320 322 322 319 319 319 320 322 316 315 313 310 309 308 307 306 303
335 331 333 332 332 333 330 330 332 333 332 333 331 329 331 326 322 325 326 326 325 323 322 320 319 319 319 319 318 320 317 318 321 321 315 315 315 313 311 308 307 305 302
334 333 333 331 332 329 310 313 319 335 334 332 331 329 329 325 319 314 315 318 323 323 321 320 319 318 319 320 320 320 319 318 318 326 322 318 318 316 313 306 302 301 300
336 335 334 333 332 330 310 311 311 334 335 334 332 328 330 330 327 321 312 312 313 313 317 323 320 320 319 321 321 322 321 324 322 325 321 315 317 309 306 301 300 299 299
336 337 335 334 332 326 305 304 306 335 335 333 334 334 333 331 330 327 327 325 324 325 325 325 325 323 322 324 325 325 330 328 325 322 323 312 315 308 306 301 299 298 298
338 335 335 334 332 329 303 303 313 335 333 332 332 334 333 331 306 310 327 324 320 317 312 310 310 308 306 312 319 328 325 320 316 319 325 317 314 309 307 303 300 298 297
337 335 333 334 321 329 303 301 317 333 329 333 332 325 309 320 303 309 327 327 322 321 323 323 322 317 316 320 309 334 329 322 321 319 327 319 315 313 308 308 303 299 298

GFSMA_sfc_thetae_024.txt.gz
Theta_e
341 344 342 343 342 341 336 337 336 336 335 335 334 334 332 334 334 336 337 345 343 343 342 341 342 342 344 347 349 348 348 347 347 346 344 344 344 344 343 342 343 344 344
344 343 343 341 339 339 338 337 335 335 334 334 334 334 333 334 334 336 336 338 341 342 342 340 341 342 343 347 348 348 348 346 346 346 344 344 344 344 343 343 343 343 341
345 345 342 341 340 342 339 337 336 336 333 333 331 333 334 333 334 336 335 338 337 341 341 341 340 342 343 346 348 348 348 346 346 345 344 344 344 343 343 343 342 341 338
345 344 341 339 342 341 339 336 334 332 332 331 330 331 332 333 333 335 334 334 335 334 339 341 342 343 343 345 348 348 348 346 346 344 344 343 343 342 343 343 341 338 335
344 342 339 339 343 339 337 335 333 332 331 329 329 330 331 331 332 333 333 334 335 333 334 338 341 343 344 346 348 348 348 346 344 343 343 343 342 341 341 340 338 335 334
343 342 340 341 341 337 335 334 332 332 330 328 330 328 331 332 333 330 330 334 332 331 334 337 337 338 343 347 348 348 348 347 345 344 342 341 340 341 340 339 337 335 333
342 343 340 340 338 336 334 333 332 330 328 329 326 327 327 330 330 330 332 331 330 331 332 338 335 334 337 345 346 349 347 348 345 344 340 339 340 339 339 338 337 335 333
342 336 339 337 338 335 333 330 330 328 327 330 323 322 317 323 327 330 330 330 329 332 333 337 336 338 336 338 341 346 347 347 346 344 340 338 339 338 338 337 336 333 332
340 340 339 337 336 334 332 330 330 328 324 329 327 322 315 314 319 326 329 330 330 332 333 335 336 337 337 337 340 345 344 344 345 342 339 338 338 338 338 336 335 333 331
339 339 338 336 336 335 333 333 332 330 327 323 326 327 326 323 317 315 324 326 328 330 331 332 334 336 338 338 343 344 339 340 343 341 340 337 336 335 334 333 333 331 330
339 338 338 337 336 335 334 333 332 330 329 326 325 325 325 324 324 319 315 320 325 328 330 332 334 335 337 338 336 335 328 335 336 336 336 335 332 331 330 329 332 332 330
340 338 337 336 336 335 334 333 332 331 330 329 328 327 326 321 320 319 313 320 322 327 330 334 332 334 337 335 339 333 330 332 330 329 329 331 332 331 330 330 333 332 331
336 337 337 335 335 336 335 333 333 331 332 328 328 327 330 328 327 324 321 323 321 325 326 330 331 334 334 336 336 334 332 327 326 325 326 327 330 329 329 331 332 331 330
336 337 337 336 336 336 335 335 334 333 332 329 328 329 329 329 329 328 325 322 318 321 323 322 326 332 332 335 334 332 328 325 324 323 324 325 326 328 329 330 330 330 330
335 337 336 336 336 335 334 333 332 333 333 331 328 330 329 330 333 331 330 327 321 316 316 319 320 328 329 332 329 326 325 324 324 322 322 322 323 325 325 326 326 327 328
332 336 336 336 334 335 335 332 333 332 333 331 329 328 328 330 328 329 328 327 325 320 314 321 321 324 326 326 327 324 324 325 323 322 322 321 321 321 322 323 324 325 324
331 333 334 334 334 333 334 333 332 331 327 326 327 327 327 328 329 326 326 326 323 321 316 319 322 324 323 323 324 325 326 325 323 321 322 320 318 318 320 320 321 320 320
334 331 331 333 333 332 331 331 329 331 327 324 325 327 326 328 327 328 325 324 322 322 319 315 319 321 322 323 323 323 324 325 323 321 319 318 317 317 315 314 313 313 313
332 330 329 332 332 331 331 332 331 331 330 327 325 324 325 326 326 325 325 323 321 321 321 318 318 321 321 322 321 322 320 321 322 320 316 315 314 313 311 310 309 308 307
330 329 331 333 332 331 331 331 331 331 328 328 327 324 325 326 325 325 324 323 321 320 320 319 318 317 318 319 320 318 317 320 319 320 315 313 311 309 308 307 307 306 303
331 332 332 332 333 332 328 328 332 330 328 328 328 327 326 325 322 324 324 321 321 321 320 318 316 316 316 317 315 315 315 316 315 313 309 308 307 307 306 307 307 305 302
333 332 333 331 332 327 309 310 322 331 330 328 324 326 324 321 317 313 316 316 321 321 319 318 317 316 316 316 315 316 315 315 310 314 312 309 309 308 304 301 303 301 300
332 332 332 333 329 326 306 303 308 332 331 327 327 328 328 326 323 321 312 312 312 312 316 321 318 318 316 317 317 314 315 316 314 317 313 308 307 301 300 299 300 299 298
333 333 333 333 330 321 304 303 305 332 331 330 331 329 328 325 324 325 324 322 323 323 323 323 322 321 321 321 320 316 321 320 318 317 315 306 305 301 300 297 299 298 297
330 331 333 333 329 324 305 303 315 332 330 330 331 330 329 326 307 310 324 322 321 320 311 310 308 306 305 310 317 323 319 314 312 313 316 309 305 302 299 297 296 298 297
335 334 331 331 319 326 304 302 315 331 328 328 328 321 310 319 307 309 323 321 319 320 321 320 318 312 312 315 310 325 321 314 314 311 316 311 306 305 300 299 295 294 294

GFSMA_sfc_thetae_027.txt.gz
Theta_e
331 331 330 331 330 330 329 329 331 331 329 329 331 331 329 329 329 333 333 342 344 343 344 344 343 343 345 347 349 348 346 347 346 346 346 346 344 343 343 343 342 342 342
332 332 333 332 330 329 329 329 328 327 327 327 327 328 331 328 329 332 335 334 342 342 345 343 343 343 343 346 348 348 347 346 347 346 345 344 345 344 343 343 343 343 342
333 334 331 330 330 330 330 328 328 328 327 327 326 330 331 328 328 331 331 331 336 341 342 344 343 343 343 344 348 348 347 347 347 346 344 344 343 343 343 343 343 342 340
335 334 330 330 330 331 329 328 327 326 326 325 324 326 327 328 327 332 330 332 332 332 338 341 343 344 345 343 347 348 348 346 346 345 344 344 343 342 342 343 342 340 337
338 333 331 330 331 331 329 328 327 325 323 324 324 324 324 324 326 330 329 328 330 331 331 339 340 342 344 345 347 348 347 346 345 345 345 344 343 342 342 341 339 337 335
337 333 332 331 330 329 328 326 325 325 324 323 326 325 323 325 326 324 328 330 329 329 330 329 334 336 343 345 347 348 348 347 346 345 343 342 341 341 341 339 337 335 334
335 333 330 329 330 328 328 326 325 323 323 323 319 320 322 324 324 325 325 326 327 327 325 332 332 333 336 343 345 347 348 347 347 345 341 340 340 341 340 337 337 336 334
333 330 330 328 328 326 326 325 325 322 321 322 317 316 310 314 321 324 325 325 325 325 326 333 332 333 331 335 340 344 347 346 348 345 340 339 340 339 338 338 337 335 333
333 330 330 327 327 326 325 322 322 321 318 319 323 317 310 308 312 319 322 324 325 328 326 331 331 333 332 334 339 344 344 343 345 344 341 339 340 339 338 337 336 334 332
334 332 329 328 326 326 324 324 325 321 320 317 319 322 321 318 311 309 317 320 323 324 325 326 327 330 332 331 338 342 339 340 343 343 341 340 339 337 336 335 334 333 327
330 331 329 328 326 325 325 324 323 322 321 318 317 317 320 319 319 316 309 313 319 322 324 326 327 328 331 332 332 337 336 334 337 338 338 338 337 335 334 333 330 327 331
328 329 330 326 325 325 325 325 325 323 321 320 320 320 317 314 313 315 311 312 314 319 324 326 327 327 328 333 337 335 332 331 330 331 333 334 333 333 331 330 328 328 331
325 326 326 325 325 327 327 326 324 324 324 321 321 321 321 320 319 315 313 314 317 322 325 328 330 332 332 333 330 333 332 329 328 327 327 327 328 330 329 329 330 332 331
325 325 327 327 328 330 330 328 326 325 326 324 322 322 322 322 323 321 315 317 315 316 320 321 326 331 334 333 331 332 329 326 324 323 323 324 326 327 327 328 330 330 330
325 328 327 327 328 328 329 327 325 326 324 326 325 325 324 326 326 324 322 320 316 314 314 319 321 328 332 334 332 329 326 324 324 322 322 322 321 323 325 326 326 326 326
327 327 327 328 327 328 328 327 325 327 323 323 323 323 324 323 323 325 325 320 318 316 313 320 321 325 328 328 330 326 325 324 322 321 321 320 321 321 321 321 323 323 323
329 326 327 328 328 327 326 326 326 326 323 322 322 322 323 324 322 324 325 321 318 318 316 319 322 324 322 323 324 325 325 323 320 320 321 319 318 318 319 319 319 320 321
324 325 328 329 328 326 324 328 325 326 323 323 323 321 322 327 324 325 323 321 320 321 319 316 320 319 320 323 324 322 321 322 323 321 318 317 316 316 316 315 314 314 314
327 324 327 327 327 326 328 328 327 327 326 324 322 322 321 324 323 324 322 321 320 321 321 319 318 321 321 322 321 321 321 322 323 320 316 316 314 313 311 310 310 309 308
325 327 328 327 328 327 328 328 328 327 326 326 324 323 323 324 323 323 321 320 321 320 319 318 317 318 319 319 320 317 315 318 318 317 314 312 311 311 309 309 309 307 305
328 329 328 327 326 324 322 322 329 326 324 322 322 324 326 324 322 322 322 321 320 319 318 316 315 316 316 315 314 316 314 314 312 310 307 306 305 305 306 307 308 305 302
328 328 324 325 321 321 305 307 320 325 325 322 322 323 322 319 316 313 314 315 319 319 316 316 315 315 314 314 316 315 313 312 307 310 307 304 305 303 301 301 303 301 300
326 326 324 322 319 314 302 302 310 325 322 321 323 325 323 322 320 319 311 312 311 311 314 318 315 315 314 316 316 315 313 311 308 309 307 301 300 296 298 299 300 299 299
325 323 324 321 317 314 302 301 309 324 322 324 323 323 323 323 321 322 322 321 321 321 321 322 320 318 317 318 318 317 316 313 312 310 307 299 299 296 296 296 299 298 297
324 323 324 320 317 314 303 302 318 324 323 324 326 324 325 323 307 309 322 320 320 319 310 307 307 306 304 306 312 319 314 311 308 307 310 301 299 296 295 293 295 298 297
324 326 325 322 315 315 304 301 318 327 323 321 322 321 311 318 304 307 322 321 318 319 319 318 315 310 312 310 311 317 315 311 308 305 310 304 299 298 294 296 293 294 293

GFSMA_sfc_thetae_033.txt.gz
Theta_e
331 330 329 328 329 330 331 329 327 326 326 326 327 327 327 328 329 329 328 337 340 341 341 342 343 343 342 346 349 349 348 347 347 346 345 345 344 344 344 344 343 342 343
331 330 329 328 327 327 328 327 326 325 325 325 325 326 326 325 327 328 328 328 338 342 344 345 344 341 341 343 347 348 349 347 347 346 345 344 344 345 344 343 342 342 342
331 330 329 326 327 327 326 325 325 324 323 324 324 325 325 325 326 326 327 328 331 339 342 343 345 341 340 341 341 347 347 347 346 346 345 343 343 344 343 342 342 342 341
332 329 331 328 328 326 325 324 323 322 322 321 321 322 323 323 325 325 325 328 328 332 338 341 343 342 341 342 340 344 347 346 344 343 344 344 343 343 342 342 342 342 341
333 332 330 328 327 325 324 324 322 322 320 321 322 322 322 322 322 325 325 326 327 331 331 339 341 341 342 342 342 343 346 345 343 344 345 345 343 342 342 342 342 342 341
334 331 329 328 327 325 324 323 322 321 321 321 323 324 322 321 321 321 323 326 325 328 329 328 330 333 341 342 342 342 344 346 344 345 345 344 343 341 342 342 341 340 337
334 331 328 327 325 325 325 322 321 321 320 322 318 320 320 322 320 320 322 322 324 326 327 327 327 329 332 343 342 343 343 346 346 345 344 342 342 342 341 341 339 336 334
332 329 327 326 325 323 323 321 324 318 320 322 316 316 312 316 318 320 320 322 322 324 325 327 326 328 328 332 336 343 343 345 346 345 340 339 341 342 341 339 336 335 335
331 329 328 326 324 322 322 320 318 319 315 320 318 314 308 308 312 318 318 320 321 320 321 323 326 328 328 328 335 341 343 342 344 344 341 339 341 341 340 337 337 335 333
330 329 331 328 326 324 321 320 321 317 316 314 315 318 314 313 312 309 314 316 319 320 320 321 324 326 328 327 333 338 340 340 343 343 342 341 341 340 338 336 335 335 333
328 329 329 328 325 321 321 321 321 318 317 316 314 313 313 313 314 311 307 311 315 317 318 320 322 324 326 326 328 333 336 336 337 339 339 340 341 340 337 336 334 333 331
324 327 326 324 323 322 321 321 321 320 318 317 315 314 313 312 311 312 310 308 310 318 323 325 320 321 325 326 331 333 333 331 330 332 334 336 337 338 336 334 333 332 331
321 323 323 321 321 322 322 321 321 321 320 317 317 315 315 314 313 313 314 313 310 318 317 324 326 324 324 324 328 334 334 328 327 327 328 332 333 333 334 332 332 331 329
321 322 322 321 322 323 323 323 323 323 321 320 318 318 316 316 315 313 311 313 309 316 318 317 326 327 329 328 329 333 330 326 325 324 325 326 328 328 328 329 329 328 330
322 322 323 323 323 325 324 324 324 325 324 321 320 319 318 318 317 316 315 320 313 308 312 315 320 327 329 329 333 331 330 326 325 323 322 322 323 324 324 324 326 326 327
322 322 322 322 323 324 324 323 324 324 322 319 319 321 318 320 318 318 316 316 316 313 310 316 321 326 328 330 333 329 327 325 323 322 321 320 320 320 320 319 322 324 324
323 322 324 324 324 323 323 323 323 323 321 320 317 319 319 318 317 319 317 316 313 313 313 318 322 326 326 326 326 326 326 324 322 321 320 319 317 318 316 316 318 319 321
322 323 324 325 325 323 322 322 323 323 321 321 318 318 319 322 321 321 318 316 313 314 317 316 319 320 323 323 324 322 322 322 320 319 318 317 316 314 314 313 313 314 314
320 321 324 324 324 322 323 326 324 324 322 321 321 318 322 321 320 319 320 318 317 318 319 317 317 320 319 321 319 319 318 318 320 320 317 316 314 313 312 311 311 310 309
321 323 323 324 324 323 323 324 326 325 323 322 323 322 323 323 321 321 320 320 320 319 319 318 317 317 317 319 318 315 314 316 312 314 313 313 312 313 311 310 311 310 307
325 326 323 323 321 319 315 317 325 321 320 321 322 324 323 322 320 320 321 321 320 318 318 317 315 315 315 315 313 314 311 311 310 312 309 308 308 308 308 311 312 309 305
326 326 321 320 317 317 303 308 317 320 323 323 321 321 321 318 315 312 313 314 318 319 318 316 315 314 314 314 314 313 311 309 305 310 305 302 303 300 301 302 305 303 303
324 322 317 317 315 312 300 304 309 320 324 323 322 320 319 318 317 315 310 310 310 310 315 319 315 315 314 315 314 312 311 309 307 306 305 298 299 295 298 300 301 301 300
322 317 315 314 314 311 301 302 308 324 323 323 322 321 320 319 318 319 318 317 317 318 319 320 318 318 317 317 316 315 312 306 307 305 303 296 295 293 294 294 300 299 298
317 315 315 313 313 315 301 302 314 322 322 322 322 322 321 319 303 306 318 315 313 312 307 305 305 303 301 304 310 312 309 308 304 303 302 297 295 292 292 292 293 299 297
318 318 315 313 310 316 300 301 314 323 321 321 320 318 307 312 301 305 318 316 313 314 315 315 313 309 310 307 307 313 311 307 302 301 305 297 294 293 292 293 292 293 293

GFSMA_sfc_thetae_036.txt.gz
Theta_e
333 333 334 332 330 333 336 336 335 334 332 331 330 330 329 330 330 332 332 336 339 341 341 342 343 342 343 345 347 348 348 346 346 347 345 345 345 344 344 344 344 343 342
332 332 331 329 329 330 332 333 332 331 329 329 329 329 329 330 331 331 334 334 337 340 341 342 343 344 342 343 344 346 348 345 347 346 344 344 344 344 345 344 343 342 342
331 331 330 328 330 330 330 330 329 329 328 328 328 329 329 329 329 330 331 333 332 336 340 341 343 343 343 342 342 344 346 346 345 344 344 343 343 344 345 344 343 342 342
332 329 329 329 330 329 329 328 327 326 326 326 326 327 328 328 329 330 330 331 332 333 336 341 342 343 341 341 341 342 346 345 344 343 343 344 344 343 344 344 342 342 341
333 330 329 330 330 329 328 327 326 327 325 325 325 326 327 327 327 328 329 330 332 334 335 337 340 341 341 340 340 341 345 346 343 343 343 343 343 343 343 343 342 341 341
334 331 330 330 330 328 327 326 326 325 326 325 325 326 326 327 325 326 327 329 330 332 334 334 337 337 340 341 341 342 343 346 344 344 344 342 343 342 342 342 341 341 338
334 332 331 330 330 328 328 327 325 325 324 326 323 323 323 325 323 324 326 328 329 330 331 332 334 334 335 340 342 343 342 345 344 344 342 341 342 342 342 341 340 337 335
334 332 331 330 328 327 327 326 326 323 322 324 321 318 316 320 321 323 325 326 327 329 330 332 333 332 334 337 342 343 343 344 344 344 343 340 341 342 341 340 337 335 334
334 332 330 328 327 327 326 324 324 322 319 323 323 319 312 312 314 320 322 325 326 327 329 329 331 332 333 335 339 343 343 343 344 343 344 340 342 342 340 334 331 330 330
332 331 329 329 328 328 326 325 324 322 321 318 321 321 318 318 315 313 319 321 324 325 326 327 329 332 333 333 334 338 339 340 344 343 343 341 342 341 339 335 335 334 333
330 331 331 330 328 327 326 324 324 321 321 320 319 318 318 318 319 317 311 314 320 323 325 326 329 330 332 333 334 336 336 336 338 340 341 341 341 340 337 334 333 333 333
327 330 330 329 327 326 325 325 325 324 322 321 320 319 318 318 317 317 314 314 317 321 325 327 327 329 332 332 333 333 332 332 331 333 333 337 339 338 335 330 331 333 332
324 325 327 325 325 325 325 325 324 324 323 322 321 320 320 320 319 320 318 316 316 319 321 326 329 330 330 332 334 334 334 329 327 326 327 330 334 334 334 333 333 332 331
325 326 326 325 325 326 325 325 325 325 323 323 322 321 321 321 320 320 316 316 315 317 320 322 330 331 332 332 332 333 334 326 325 323 325 327 329 330 330 330 330 330 330
325 325 325 324 326 326 327 327 326 326 324 323 324 323 322 322 321 321 319 322 320 313 314 321 324 331 333 332 334 332 332 325 325 323 323 324 324 324 325 324 325 325 324
324 324 325 326 327 327 327 327 326 327 324 323 323 323 322 323 322 322 321 321 321 319 315 319 324 329 330 332 333 331 329 326 322 321 322 321 320 320 321 321 320 322 324
324 324 326 327 326 326 326 326 325 326 324 321 322 323 323 324 323 322 322 321 320 321 315 321 325 329 328 327 326 327 328 325 322 321 321 319 317 317 318 319 320 321 322
325 325 327 327 327 326 324 325 324 325 321 321 320 322 322 323 323 324 322 320 320 321 320 318 320 323 323 325 324 323 323 324 322 321 318 316 315 314 315 314 315 315 315
324 325 326 326 326 325 325 326 325 325 322 322 321 321 323 323 322 321 321 320 320 322 323 321 318 321 320 321 319 319 319 319 320 320 317 316 314 314 314 312 311 311 310
323 323 326 326 325 324 323 323 327 326 323 322 322 322 323 323 321 320 321 319 322 322 322 318 317 317 317 318 318 315 314 317 314 315 314 314 314 313 311 311 312 311 307
324 326 325 324 322 321 317 320 325 325 323 322 322 323 324 322 320 321 322 321 322 321 318 316 315 315 314 315 313 314 312 312 312 312 309 309 310 311 313 312 314 311 307
326 325 323 322 320 318 301 309 318 323 324 323 322 322 322 318 315 313 314 315 320 319 317 316 315 314 314 313 314 313 311 311 305 310 307 302 306 305 307 310 307 305 304
326 322 320 320 318 316 301 303 310 325 324 322 321 319 318 316 316 317 310 311 310 310 315 321 317 315 313 315 314 313 314 312 307 308 308 302 303 302 303 304 302 302 301
323 320 319 318 317 313 302 302 310 324 323 322 321 320 319 319 317 319 319 318 319 320 321 322 321 320 319 318 317 315 311 307 309 308 310 303 301 300 300 301 300 300 299
320 318 318 317 318 315 300 302 316 324 322 321 322 321 319 316 303 306 316 314 314 313 307 304 303 302 301 303 309 313 310 310 307 308 307 304 301 300 300 300 300 299 298
320 319 317 317 312 317 299 302 316 323 320 319 318 316 306 311 301 304 316 315 312 313 314 314 312 308 309 307 307 315 313 311 309 308 309 305 300 301 301 301 300 301 300

GFSMA_sfc_thetae_042.txt.gz
Theta_e
346 343 343 339 340 340 340 341 343 345 345 345 344 342 340 340 340 340 339 341 339 340 342 343 342 342 344 346 348 348 349 348 347 345 342 340 342 342 341 343 339 338 340
348 341 341 340 338 339 340 340 341 343 343 343 343 343 342 341 341 341 339 340 340 339 340 341 342 342 344 345 346 347 347 349 347 343 342 344 343 342 342 343 342 341 342
350 348 340 340 338 342 341 340 341 344 342 342 343 343 344 342 340 341 341 339 339 340 339 340 341 342 343 344 344 343 344 348 348 345 343 344 343 341 341 343 342 342 342
349 347 342 339 339 341 339 338 338 336 339 339 341 344 344 342 339 340 341 340 339 338 340 341 341 341 342 344 343 342 344 346 347 346 344 343 342 341 341 341 343 342 341
349 346 343 340 346 338 337 336 336 337 337 344 341 343 343 339 339 338 341 341 341 340 337 341 341 342 344 344 343 343 342 346 346 345 344 344 342 342 342 342 343 342 341
348 347 344 344 343 338 336 336 337 338 343 341 337 336 339 340 340 341 340 342 341 339 340 339 340 338 343 344 343 341 342 342 345 345 342 343 342 342 342 342 342 341 340
348 346 345 343 343 338 337 339 338 343 341 339 335 334 334 337 339 338 337 340 339 338 339 339 339 346 338 342 342 342 341 342 345 345 343 341 341 339 339 341 341 340 334
348 344 347 344 343 339 339 339 344 338 337 339 333 331 324 331 335 336 338 337 336 337 335 338 339 342 343 339 340 342 341 342 345 344 342 341 340 339 339 340 338 333 329
345 344 346 346 344 341 338 343 342 341 333 337 338 330 322 321 328 332 332 335 335 340 340 339 341 341 342 343 340 341 342 342 343 344 343 342 341 341 342 338 334 332 332
345 348 348 346 345 342 345 343 342 340 339 332 330 332 333 330 323 322 328 332 329 335 338 340 342 341 341 340 342 341 339 340 342 344 343 343 342 341 340 338 337 334 335
346 347 348 347 346 344 345 343 343 343 339 335 331 329 329 328 331 327 323 327 330 332 339 337 342 346 341 340 341 339 337 338 340 341 342 342 343 340 338 335 334 333 331
347 348 347 347 347 345 345 344 343 342 339 334 331 333 327 326 328 328 327 324 325 327 337 340 339 346 343 338 341 335 334 334 333 334 336 338 339 340 338 335 334 332 332
344 347 348 346 344 345 344 343 342 339 337 334 335 329 332 330 333 334 331 325 322 325 329 338 340 344 339 339 340 337 334 331 328 328 330 333 335 335 334 334 333 334 334
341 347 346 347 345 343 342 342 339 336 337 336 335 336 333 331 332 335 333 326 322 325 329 333 337 345 339 340 341 332 335 328 326 325 325 328 330 330 331 332 332 332 332
343 345 345 344 343 342 340 340 335 336 337 338 333 336 336 336 332 330 330 330 329 316 321 330 334 342 345 339 336 341 342 326 325 323 323 324 325 326 326 327 327 327 328
343 344 343 342 339 339 339 339 338 338 337 338 331 329 336 337 337 332 330 328 333 330 322 331 335 340 341 338 337 342 340 329 323 323 323 322 321 322 322 322 323 324 324
342 339 337 336 336 337 339 339 338 336 335 332 330 332 333 335 336 334 331 331 332 333 328 327 337 338 337 337 336 337 338 337 330 322 323 320 318 318 318 319 319 320 322
337 336 335 335 335 335 338 337 333 333 332 326 325 325 328 332 334 336 335 335 335 336 331 328 331 331 332 335 333 331 331 332 330 322 320 318 316 315 313 313 314 316 317
336 336 336 335 334 334 334 333 333 332 330 326 323 323 327 329 330 331 336 334 335 332 335 330 325 326 325 326 324 324 324 322 322 320 317 316 314 314 314 313 313 313 312
336 336 336 334 334 334 333 334 332 333 330 327 324 326 326 329 329 330 331 335 335 333 334 328 322 320 320 322 321 317 317 319 317 319 318 316 316 316 314 313 314 313 309
335 335 335 334 336 334 332 331 333 332 327 324 323 325 326 328 323 326 331 335 333 333 328 324 320 318 316 317 316 318 315 316 316 317 318 319 321 323 322 317 318 313 309
335 335 334 332 334 331 307 310 318 331 327 325 324 325 328 322 320 315 317 317 330 333 326 322 318 316 316 317 318 316 315 313 309 317 314 313 326 325 324 326 308 307 306
337 335 335 333 333 331 304 306 311 333 331 327 325 324 326 329 325 329 313 313 313 312 321 329 319 318 315 317 318 317 320 319 312 315 315 309 315 319 323 315 305 305 304
336 336 334 334 333 325 303 303 311 332 328 323 323 323 321 324 328 326 327 327 330 330 329 329 325 323 320 322 323 323 324 319 317 321 321 310 316 317 321 319 304 304 303
334 335 334 334 330 328 303 304 318 326 323 323 325 323 322 321 307 307 327 323 322 319 308 309 307 306 305 307 316 321 317 315 309 312 319 318 318 318 319 318 315 303 302
334 332 333 333 318 328 301 303 319 325 325 322 321 318 306 313 300 305 324 324 321 320 320 317 314 308 312 311 308 324 321 315 313 310 320 318 319 318 313 318 317 312 311

GFSMA_sfc_thetae_045.txt.gz
Theta_e
347 343 346 341 343 340 341 342 343 345 347 344 343 342 340 341 340 338 339 343 341 341 342 343 344 343 343 346 348 348 349 348 346 345 342 339 338 340 341 339 338 338 337
351 345 346 343 342 341 340 341 342 342 344 345 343 343 342 342 342 342 339 342 343 342 342 342 343 343 343 344 346 347 348 349 346 345 344 343 342 343 341 341 340 340 337
354 352 346 344 344 344 349 346 348 344 342 344 344 343 342 342 342 344 342 340 341 343 343 342 342 342 343 344 345 345 347 348 347 344 343 342 343 343 342 343 342 341 339
357 355 345 345 346 344 341 339 338 338 342 339 341 348 345 343 342 341 339 339 342 338 342 343 342 342 343 344 345 344 345 345 347 345 342 343 343 344 342 341 342 341 341
354 353 347 346 352 343 341 340 339 340 337 338 338 345 348 345 342 337 340 340 341 342 338 342 342 343 343 344 345 344 344 345 346 347 345 343 343 343 341 341 341 341 340
352 353 348 351 349 342 340 340 342 339 337 337 340 343 341 342 340 339 339 345 340 342 341 339 340 338 342 344 345 345 343 343 345 346 345 343 343 342 340 340 341 342 341
352 353 347 350 349 343 345 348 340 341 335 343 342 333 337 340 341 338 347 344 341 339 341 337 340 344 338 343 345 345 343 343 343 345 343 341 342 342 340 340 341 341 337
353 351 352 350 350 344 348 346 344 334 338 343 336 330 325 329 334 337 344 341 338 337 336 335 338 341 345 338 340 343 343 343 343 345 344 341 341 342 339 341 341 337 334
351 350 350 351 349 348 340 345 343 344 342 340 339 332 322 324 332 336 335 337 339 341 335 341 338 341 345 343 341 340 343 343 343 344 343 341 341 340 341 340 336 335 334
347 347 348 348 348 345 346 343 344 345 345 334 336 335 335 331 324 323 335 335 337 337 340 336 338 341 342 337 343 340 340 342 343 345 343 343 342 341 341 338 335 334 333
346 347 348 348 348 345 351 350 347 345 339 338 333 330 332 328 331 327 323 329 332 334 335 338 342 343 343 339 340 337 338 338 336 341 342 343 342 342 340 337 334 334 333
347 347 348 349 351 350 349 345 345 343 346 341 334 336 328 325 327 328 327 329 330 333 333 339 341 341 342 341 344 336 335 335 333 335 337 338 341 341 339 338 337 337 335
345 346 351 349 347 349 347 345 344 343 341 337 337 331 331 333 335 334 332 329 328 329 333 332 342 340 342 341 341 337 336 332 330 330 331 333 335 336 336 336 336 334 334
347 353 351 348 345 344 344 344 342 340 343 336 337 336 337 335 332 334 332 331 326 326 331 332 336 337 341 346 341 335 337 329 327 327 327 328 330 331 332 332 331 331 332
347 348 347 345 344 343 343 343 339 338 339 341 337 337 337 334 334 331 334 330 333 320 323 333 332 337 342 343 336 340 337 327 327 325 324 324 325 326 327 328 328 328 328
345 344 342 343 342 342 341 342 340 342 339 341 339 332 336 338 338 336 334 331 332 328 324 336 336 331 338 342 335 343 339 329 324 323 324 323 322 323 323 323 324 325 326
343 341 341 341 338 337 339 342 339 337 335 337 335 330 332 335 336 337 333 330 337 329 325 333 338 340 337 339 339 340 336 337 330 323 323 321 319 319 319 319 320 322 322
341 338 337 335 334 335 339 337 335 335 334 333 328 327 329 333 335 337 340 335 338 337 335 328 332 333 335 335 336 336 335 336 330 322 320 318 317 315 315 315 316 317 317
337 336 335 334 335 336 336 336 333 333 333 334 329 324 328 331 333 335 337 337 333 337 337 331 327 328 328 327 324 324 324 325 324 321 317 316 315 314 314 314 313 313 313
335 335 336 335 333 332 332 334 334 335 334 331 326 323 324 329 331 332 335 337 337 336 329 331 323 322 323 323 323 320 318 321 319 321 320 317 316 315 314 313 315 314 311
336 336 336 335 335 335 331 335 333 333 332 325 324 324 327 327 324 326 335 336 336 334 332 324 320 319 318 319 318 319 315 316 317 319 317 318 319 319 318 318 319 316 311
336 336 336 335 335 330 307 312 322 331 329 326 322 325 327 323 322 316 317 318 332 335 329 323 319 317 319 318 318 317 314 313 309 319 317 316 321 319 320 322 315 310 308
338 336 334 335 333 331 305 307 313 333 330 326 325 326 327 330 325 329 315 314 315 314 322 327 322 320 317 321 321 318 319 317 313 317 317 315 321 320 322 317 308 307 306
338 338 335 335 332 325 306 307 311 332 329 325 325 325 327 330 330 329 332 332 330 330 331 329 328 324 324 325 325 324 323 317 318 318 320 314 319 320 323 322 306 306 304
338 337 335 334 331 328 305 307 318 327 325 323 323 324 324 329 309 308 330 327 327 324 310 311 310 306 305 308 319 322 318 316 313 315 322 316 316 319 320 320 317 305 304
336 335 334 334 321 328 303 307 318 328 323 321 322 319 309 321 302 307 328 327 324 322 320 317 316 310 312 311 311 329 323 317 315 314 323 318 317 320 316 321 320 314 311

GFSMA_sfc_thetae_048.txt.gz
Theta_e
340 339 340 338 338 337 339 336 339 339 340 342 343 342 339 340 340 338 340 346 345 344 343 343 342 341 343 346 346 347 347 349 348 346 344 341 341 342 342 342 340 339 338
344 341 340 342 341 339 339 338 337 339 341 342 343 343 342 342 341 340 339 342 345 345 344 344 344 344 344 344 345 347 347 348 347 347 344 342 339 342 342 342 340 339 338
344 345 343 338 341 344 340 341 339 340 343 344 343 344 341 342 340 340 341 338 340 345 345 346 345 344 343 343 345 346 347 346 346 346 343 341 340 342 343 341 340 339 338
350 349 344 344 342 343 342 341 341 340 339 340 341 340 344 343 341 340 341 337 337 337 341 345 345 344 343 344 345 345 347 345 346 345 344 342 342 343 343 342 342 342 341
351 350 347 345 348 343 340 341 340 338 338 339 337 340 342 339 339 340 339 338 338 338 337 342 342 344 343 345 345 345 345 345 344 345 344 343 343 344 343 341 341 341 339
354 350 350 347 351 342 342 340 338 340 338 338 335 338 339 339 340 339 338 337 338 338 339 337 338 338 342 343 345 346 344 344 345 346 344 342 342 342 342 341 340 340 340
353 352 347 350 347 344 341 344 342 340 336 336 337 336 334 337 336 336 338 337 336 337 337 337 336 335 337 340 342 344 345 343 343 346 345 342 341 342 340 340 339 341 337
353 352 348 347 346 345 345 345 341 336 335 337 333 331 324 328 333 334 335 336 334 335 335 335 334 336 335 335 338 343 345 344 343 345 344 341 342 342 340 338 341 340 336
353 351 348 347 347 346 342 343 340 337 332 338 337 330 322 318 324 331 331 334 334 334 334 331 336 335 335 336 338 340 343 343 344 344 344 342 342 342 341 341 340 338 335
351 350 348 348 347 344 344 340 341 338 339 332 335 335 333 329 320 319 328 330 333 332 331 332 329 332 335 333 339 339 339 340 344 345 344 343 343 341 342 341 339 337 335
347 347 347 348 345 344 345 341 339 341 340 335 333 331 330 329 328 322 318 323 329 330 331 330 326 329 334 331 333 336 338 338 339 341 342 343 343 342 341 339 338 337 335
343 344 345 346 345 345 346 344 344 341 339 337 335 332 327 324 323 323 321 321 321 326 329 329 330 331 333 330 336 336 334 332 333 334 335 338 341 342 340 339 338 337 335
340 344 345 344 346 348 346 343 343 341 340 337 335 331 331 330 328 327 325 321 320 323 325 328 331 332 334 334 334 336 333 328 329 329 330 331 336 337 337 338 337 336 336
343 345 347 345 347 346 344 344 342 340 339 337 335 334 333 332 329 326 325 321 317 320 324 323 331 332 331 334 335 336 333 329 328 326 326 328 331 333 333 334 334 333 332
347 346 348 345 345 345 343 342 340 339 338 337 335 335 332 332 332 329 328 326 322 315 317 325 325 330 332 333 333 334 334 328 328 324 324 324 326 326 327 328 328 328 328
348 347 345 345 344 342 342 340 338 338 336 336 335 334 333 333 331 331 329 328 326 321 317 325 327 330 331 333 334 333 333 328 325 323 323 322 323 323 323 323 324 325 325
345 344 343 342 341 341 340 338 337 336 333 333 333 332 329 332 330 330 330 327 327 325 321 324 326 329 329 330 332 330 333 330 326 323 323 321 320 319 320 320 320 322 323
342 341 341 339 338 337 337 336 334 334 332 331 329 328 328 330 329 330 329 327 326 325 324 321 324 326 327 331 330 329 332 332 327 322 321 319 317 316 316 315 316 318 317
342 338 337 336 334 334 334 335 334 333 332 331 329 327 324 325 328 328 329 329 328 327 326 326 324 326 326 326 323 323 323 323 323 322 318 317 316 315 314 314 314 314 314
338 337 335 333 334 334 335 335 335 333 332 332 328 323 322 324 325 328 330 328 328 326 327 324 322 321 321 322 322 319 318 321 320 322 319 317 316 315 314 314 315 315 312
337 335 336 334 334 331 328 333 334 333 332 328 325 323 323 324 323 324 329 328 328 326 325 321 319 319 318 319 318 318 315 316 317 319 317 317 317 317 316 317 319 317 311
335 336 333 334 331 325 305 312 326 331 328 325 322 323 325 321 321 315 318 319 323 326 322 320 318 315 318 317 317 316 315 314 310 319 316 316 319 318 320 319 315 310 309
336 334 334 334 330 323 305 309 313 332 328 325 323 324 325 328 325 326 315 314 316 315 320 323 320 318 317 318 317 316 317 316 313 316 317 313 319 316 318 314 310 308 306
337 335 334 332 328 320 306 308 317 330 327 325 324 324 327 328 327 328 328 328 326 326 325 326 323 322 322 321 320 319 318 316 316 318 319 310 317 317 318 313 307 306 305
334 334 333 330 327 323 306 308 320 326 325 324 324 324 325 327 309 308 328 326 322 320 310 310 311 306 306 308 315 318 315 314 311 313 318 315 315 316 318 314 308 306 304
334 335 332 329 318 325 304 309 318 325 322 320 320 321 306 318 305 309 328 325 321 319 318 318 316 309 312 311 310 320 318 314 313 312 318 314 315 316 313 316 314 305 305